Regional Weather Roundup
Issued by NWS

Home | Current Version | Previous Version | Graphics & Text | Print | Product List | Glossary On
Versions: 1 2 3 4 5 6 7 8 9 10 11 12 13 14 15 16 17 18 19 20 21 22 23 24 25 26 27 28 29
000
ASUS45 KCYS 281910
RWRWY

WYOMING REGIONAL WEATHER ROUNDUP
NATIONAL WEATHER SERVICE CHEYENNE WY
100 PM MDT THU APR 28 2016

NOTE:  "FAIR" INDICATES FEW OR NO CLOUDS BELOW 12,000 FEET
WITH NO SIGNIFICANT WEATHER AND/OR OBSTRUCTIONS TO VISIBILITY.

WYZ001-282000-
YELLOWSTONE NATIONAL PARK

CITY           SKY/WX    TMP DP  RH WIND       PRES   REMARKS
LK YELLOWSTONE   N/A     36  22  56 VRB6      29.90S WCI  31
W YELLOWSTONE  NOT AVBL

$$
WYZ002>013-054>058-071-098>099-282000-
NORTHERN WYOMING

CITY           SKY/WX    TMP DP  RH WIND       PRES   REMARKS
JACKSON        PTSUNNY   48  21  34 N14G22    29.81F
CODY           CLOUDY    37  28  70 N13G18    30.00F WCI  29
GREYBULL       CLOUDY    43  29  57 CALM      29.99F
WORLAND        CLOUDY    39  30  70 SW6       30.00F WCI  35
SHERIDAN       CLOUDY    39  32  76 NE8       30.06S WCI  33
BUFFALO        LGT SNOW  34  29  82 N7        30.03F WCI  28
GILLETTE       CLOUDY    36  32  85 N8        30.03S WCI  30
HULETT         CLOUDY    36  32  87 NE7       30.05S WCI  30
NEWCASTLE      CLOUDY    37  28  70 S7        30.02S WCI  32

$$
WYZ014>020-022>026-101>103-282000-
CENTRAL WYOMING

CITY           SKY/WX    TMP DP  RH WIND       PRES   REMARKS
BIG PINEY      FAIR      42  29  59 SW15G22   29.86S
PINEDALE       MOCLDY    45  32  61 SW12G22   29.84S
DUBOIS         CLOUDY    30  28  93 SE16G24   29.91F WCI  19
LANDER         CLOUDY    34  30  85 N6        29.96F WCI  29
RIVERTON       CLOUDY    36  28  73 E12       29.98S WCI  28
CASPER         CLOUDY    34  27  75 NE15      29.98F WCI  24
DOUGLAS        CLOUDY    37  29  72 NE9       30.01F WCI  30

$$
WYZ021-027>030-104>119-282000-
SOUTHERN WYOMING

CITY           SKY/WX    TMP DP  RH WIND       PRES   REMARKS
EVANSTON       CLOUDY    35  27  72 E21G31    29.82S WCI  24
KEMMERER       CLOUDY    34  28  80 E20G28    29.87S WCI  22
FORT BRIDGER   LGT SNOW  32  32 100 E16       29.88S WCI  21
ROCK SPRINGS   CLOUDY    35  25  66 E23G33    29.87R WCI  23
DIXON          LGT SNOW  34  33  95 NE6       29.84R WCI  29
RAWLINS        CLOUDY    33  25  72 NE15      29.89F WCI  23
SARATOGA       LGT SNOW  32  32 100 CALM      29.87R VSB 1
LARAMIE        SNOW      29  27  92 E12       29.91S VSB 1/2 WCI  19
CHEYENNE       SNOW      32  29  88 E9        29.96R VSB 1/2 WCI  24
TORRINGTON     CLOUDY    44  27  51 NE12      29.98F
PINE BLUFFS    CLOUDY    37  28  70 E7        29.98S WCI  32

$$




USA.gov is the U.S. government's official web portal to all federal, state and local government web resources and services.